Terminal Aerodrome Forecast
Issued by NWS

Current Version | Previous Version | Text Only | Print | Product List | Glossary On
Versions: 1 2 3 4 5 6 7 8 9 10 11 12
000
FTUS44 KEPZ 272300
TAFDMN
TAF
KDMN 272335Z 2800/2824 VRB05KT P6SM VCTS SCT060CB BKN200
     FM280200 29006KT P6SM SCT080
     FM281200 29005KT P6SM SKC=

USA.gov is the U.S. government's official web portal to all federal, state and local government web resources and services.